RH
63 63 59 60 69 70 78 76 68 73 65 60 58 58 57 49 52 55 61 59 61 63 56 55 53 55 63 81 89 87 90 86 86 87 93 97 93 90 94 98 95 96 97 99 99 96 96 98 98 97 97 94 90 88 87 88 90 91 89 88 86 84 80 81 82 81 81 78 74 69 66 66 66 62 59 60 61 60 57 56 56 57 57 57 58 58 58 57 58 62 64 63 60 65 75 78 85
63 63 59 61 68 73 87 80 70 71 61 61 55 52 53 46 52 59 60 61 64 62 60 63 64 69 70 73 70 73 85 90 91 87 94 97 93 95 97 96 92 94 96 99 97 92 96 97 97 97 96 94 92 85 82 84 88 92 91 86 83 81 78 78 80 78 77 75 69 64 61 61 62 60 59 60 61 61 55 51 51 53 56 57 59 60 59 56 56 59 63 64 64 67 74 78 81
64 62 58 65 74 79 85 75 60 59 61 62 51 45 48 52 59 62 61 61 61 56 56 60 61 65 66 71 70 77 88 86 88 89 94 91 91 98 97 94 92 95 97 97 96 93 95 93 92 95 95 92 90 82 78 83 86 91 88 82 81 79 78 78 77 73 71 69 64 60 58 57 59 58 60 62 61 58 51 48 48 51 56 58 59 60 56 53 52 53 58 61 64 66 69 73 75
63 62 60 71 87 87 86 86 69 55 57 57 51 48 49 56 60 60 60 57 55 52 54 58 63 59 63 80 74 78 89 85 85 88 91 87 88 95 95 96 95 96 97 97 99 98 96 92 91 95 96 93 91 86 84 86 84 83 81 80 82 82 79 76 72 67 64 63 60 61 61 56 56 58 60 61 58 53 48 47 48 52 56 57 57 56 52 50 50 51 53 53 56 59 63 66 69
59 60 63 76 90 86 85 84 66 54 51 49 50 50 50 52 52 53 51 51 50 52 54 58 69 63 62 74 72 82 90 83 81 82 88 89 86 90 95 97 95 96 97 97 98 97 98 95 90 90 92 93 92 89 86 85 80 78 78 77 78 80 77 71 67 63 63 62 60 64 65 58 56 58 59 57 52 47 46 47 50 53 54 55 54 52 51 51 51 52 51 51 52 56 62 64 67
59 61 63 76 82 75 79 64 43 44 40 40 48 47 48 45 46 48 47 48 48 53 56 60 67 67 71 71 70 80 80 77 80 82 89 93 88 89 95 98 96 95 95 95 92 92 96 92 85 83 84 86 84 83 81 82 79 76 75 73 73 75 74 68 64 64 65 64 62 63 64 60 57 57 55 53 49 46 48 50 51 51 52 53 52 52 53 55 55 53 52 52 53 58 64 66 71
61 68 71 78 73 68 75 53 34 38 32 37 47 45 45 44 46 47 47 49 51 54 56 61 59 68 80 73 75 74 68 72 78 83 87 91 90 90 96 99 97 95 92 89 87 89 90 89 86 84 82 79 77 76 77 77 76 73 72 71 70 70 70 68 66 68 67 64 63 62 62 59 56 55 53 50 48 48 51 52 51 50 52 52 53 56 57 58 58 55 55 55 55 60 65 66 70
60 70 76 77 62 60 63 42 33 38 35 38 42 43 44 44 45 46 48 49 53 55 58 63 58 76 85 74 84 77 69 73 73 81 83 88 91 89 93 95 95 95 90 84 85 88 89 89 89 86 81 77 74 73 74 72 71 73 75 74 73 71 70 69 68 67 64 63 63 61 60 58 55 54 53 51 51 51 52 52 52 53 54 55 57 59 59 57 56 54 56 58 57 59 63 65 68
62 64 65 64 52 48 46 36 34 36 39 40 40 42 42 42 44 48 52 52 54 58 63 65 60 81 87 81 90 78 79 78 70 79 81 89 91 87 90 89 92 91 87 86 87 87 88 87 85 85 82 81 77 73 73 73 76 76 76 77 76 73 70 66 64 64 61 62 63 61 59 57 56 56 56 55 55 55 55 55 56 56 56 57 59 57 54 51 50 52 54 57 58 59 62 64 67
66 65 57 55 54 46 39 39 35 32 35 37 39 40 41 42 46 49 54 58 60 65 67 64 67 82 86 89 93 82 86 79 73 83 83 88 88 86 87 85 87 86 84 86 89 87 85 84 83 84 84 86 84 82 81 82 83 78 75 75 72 69 67 64 62 61 61 62 62 61 59 59 59 59 59 59 60 60 59 58 57 57 56 56 54 51 49 48 49 52 55 56 57 59 62 63 66
65 64 51 47 58 51 39 40 34 30 29 32 37 37 41 43 49 54 58 65 66 71 70 67 76 82 84 92 94 86 85 79 77 85 84 86 87 85 83 84 87 85 82 82 87 85 82 83 83 82 83 85 85 86 86 83 80 77 76 72 69 67 65 63 60 60 63 63 61 60 59 60 61 62 63 65 67 64 58 56 55 55 53 52 49 49 48 49 51 52 54 56 58 60 62 64 68
55 53 51 47 56 52 40 40 36 34 33 36 40 39 42 45 53 59 62 68 69 72 67 66 74 76 88 97 93 86 85 84 82 84 86 88 87 83 80 83 84 83 82 80 84 86 83 83 81 79 79 80 80 81 81 80 80 79 78 73 70 67 66 64 62 63 64 62 62 63 62 62 63 65 69 69 65 58 55 54 53 51 50 51 51 52 51 50 50 51 54 56 57 59 60 63 69
51 47 55 47 47 50 40 39 38 39 41 40 42 41 43 46 53 57 59 65 65 68 65 64 67 70 88 93 88 86 85 87 87 90 91 88 85 82 81 83 81 81 81 80 84 87 86 81 78 77 75 76 77 77 77 78 80 79 75 73 71 68 67 66 66 66 64 65 65 65 67 67 66 69 72 67 58 53 53 52 51 52 53 57 58 58 57 54 53 54 58 59 58 58 60 61 65
48 44 57 47 45 49 38 40 40 41 43 39 41 41 42 45 49 51 55 62 61 64 65 61 62 73 88 91 92 90 84 86 89 91 90 90 88 83 83 81 79 80 81 81 83 86 84 80 78 77 77 74 73 75 76 76 75 74 71 69 69 69 69 69 68 67 67 67 66 66 69 73 71 70 66 58 53 52 52 52 56 61 60 61 63 63 63 61 60 61 62 62 60 58 58 58 58
40 43 56 50 44 44 37 40 37 38 41 37 40 39 41 43 43 48 51 57 61 59 58 57 58 70 83 88 94 88 81 84 87 88 90 95 94 87 84 81 78 78 79 80 82 83 81 79 78 80 81 76 73 74 76 76 74 71 70 69 69 69 68 69 68 67 68 67 66 64 68 73 69 61 55 51 52 52 52 52 56 61 61 61 62 61 61 63 63 62 60 59 61 60 59 58 57
32 36 47 47 42 39 36 36 32 37 37 31 36 36 43 43 40 47 45 50 59 55 54 60 58 60 71 76 81 79 78 83 85 89 93 98 97 92 87 83 80 78 80 81 82 83 82 79 79 81 80 78 76 75 75 76 76 72 69 69 69 70 70 70 69 67 67 68 66 63 68 69 58 51 50 51 52 51 51 51 52 54 57 59 59 60 61 62 62 58 57 60 64 66 66 64 63
26 31 41 44 41 38 35 34 31 34 31 29 33 35 45 45 40 44 42 46 55 54 52 59 56 56 65 67 71 76 79 83 86 91 95 98 99 97 94 89 85 84 85 86 83 83 84 82 80 79 76 77 77 78 78 76 77 74 68 69 69 70 72 72 73 72 71 71 69 68 73 66 52 50 51 51 51 50 50 52 54 54 55 58 59 61 63 62 60 59 62 67 70 71 71 71 69
27 36 41 40 39 36 31 32 30 30 30 31 34 37 43 45 44 44 45 49 51 53 53 57 59 58 63 66 71 76 80 83 85 89 93 96 98 98 99 95 90 90 92 93 90 85 83 84 81 77 75 76 79 81 82 79 80 80 71 65 67 68 68 73 79 80 76 75 75 76 73 60 50 50 49 48 49 50 54 56 58 58 57 58 60 62 64 65 63 64 67 68 73 76 74 71 67
30 38 39 37 35 31 26 29 29 28 30 31 34 36 39 43 46 45 49 54 51 54 57 60 65 66 67 69 73 76 80 82 82 87 91 95 96 96 99 98 95 93 93 95 94 85 79 83 82 75 74 78 82 83 86 86 85 88 79 65 64 65 64 69 78 81 79 78 78 79 74 61 54 51 48 49 52 57 61 62 62 62 61 62 63 63 65 66 64 63 64 66 70 71 67 63 62
29 32 36 36 29 26 26 28 27 26 28 31 33 33 37 42 43 44 50 54 52 56 61 65 72 74 74 73 73 75 79 81 83 86 90 93 93 94 97 98 98 93 88 88 90 84 75 78 79 73 73 78 82 81 84 87 83 86 84 71 65 66 68 70 74 76 76 75 74 77 75 67 59 52 51 53 58 63 63 65 66 66 66 67 64 58 60 61 59 59 60 63 63 61 59 58 59
26 27 33 31 25 25 26 26 25 26 26 29 31 32 40 41 41 44 49 55 55 54 57 64 71 73 75 75 74 74 77 80 83 85 88 91 92 93 94 94 94 92 91 89 85 84 75 71 73 73 76 80 83 82 82 82 80 84 88 82 72 67 70 73 72 71 70 70 73 77 74 69 62 54 56 59 62 66 67 69 70 69 68 64 60 56 57 57 57 59 60 63 61 59 58 58 60
23 25 27 25 24 24 25 26 25 25 26 28 31 35 39 37 40 44 47 55 54 49 52 58 64 68 72 75 74 73 74 78 81 83 86 90 91 93 95 93 93 95 100 95 86 86 81 72 68 70 75 79 79 78 80 79 80 86 87 82 75 68 68 71 72 70 67 66 70 75 73 69 62 55 61 64 65 70 72 72 72 72 69 62 60 59 58 59 60 62 64 66 64 62 59 59 63
22 23 22 23 23 22 25 27 25 25 27 29 31 32 33 35 42 42 44 50 44 43 49 55 60 63 67 70 72 72 74 76 78 81 84 87 89 92 95 97 96 97 100 95 86 87 88 78 67 66 70 74 76 74 76 79 81 86 81 74 72 68 67 68 66 64 61 60 65 69 69 65 59 57 65 67 67 71 72 73 73 70 66 62 60 60 60 60 61 65 69 70 66 61 58 57 60
20 21 21 22 21 22 26 27 26 26 28 30 30 30 33 39 44 43 46 47 41 44 49 53 58 60 63 67 69 70 73 75 75 78 81 83 86 89 92 95 92 92 97 95 87 85 87 81 69 66 66 67 74 76 76 79 82 84 79 74 71 66 64 62 60 60 60 62 67 69 70 66 62 63 68 68 68 71 72 74 71 66 64 61 59 58 59 58 60 67 71 68 61 57 57 59 60
18 20 22 21 21 24 27 27 27 29 30 32 33 35 38 40 42 46 50 49 44 47 52 55 58 60 63 66 67 70 73 73 73 75 78 80 82 85 90 91 88 88 91 89 89 90 84 77 70 67 68 68 71 75 78 83 85 81 79 77 70 66 62 57 58 63 65 68 72 74 74 72 68 68 69 69 70 72 74 73 69 66 65 62 61 61 61 61 64 70 70 64 59 56 60 64 63
17 20 23 22 24 26 27 30 30 32 33 35 40 46 46 40 45 53 52 47 47 51 56 58 60 63 65 65 66 70 73 71 71 73 75 77 78 83 88 90 89 84 78 79 91 97 87 77 72 69 72 74 75 77 82 89 87 77 77 76 68 67 64 59 63 70 72 75 77 77 76 73 71 70 69 69 71 73 75 73 69 67 67 66 69 70 67 66 70 75 71 64 62 59 63 68 66
19 21 23 23 26 26 28 32 33 36 36 38 47 53 50 42 49 61 53 45 50 56 61 61 62 66 65 65 67 69 70 68 69 71 72 75 77 82 84 89 91 84 79 84 92 96 91 84 77 74 76 77 77 77 84 90 85 73 74 78 73 70 69 67 71 76 79 79 81 83 80 76 71 69 69 70 72 74 75 72 70 69 69 73 76 76 74 72 76 79 73 68 66 62 66 69 67
20 22 25 27 27 28 30 33 35 38 40 42 46 51 52 48 53 59 53 48 51 58 63 63 64 67 66 66 68 70 69 66 66 68 70 73 76 79 82 86 89 87 87 84 83 88 91 86 81 82 83 79 75 76 84 88 79 69 71 78 77 75 79 79 76 77 81 81 84 87 82 77 73 68 67 70 73 74 74 70 68 69 70 75 78 77 77 76 78 80 77 74 70 67 69 68 67
21 23 29 31 30 32 33 34 35 37 42 41 42 53 57 55 59 56 51 49 52 58 62 62 64 67 68 68 70 72 69 66 66 66 68 69 72 76 78 82 84 87 87 77 74 84 87 82 81 88 88 82 76 75 82 83 76 71 72 76 77 79 85 86 82 81 84 85 85 84 80 77 74 69 67 70 73 73 73 70 68 71 72 76 77 74 75 75 76 76 76 74 71 70 69 65 66
23 24 30 35 37 38 33 34 36 38 42 37 41 64 67 59 60 54 50 51 53 59 60 60 62 65 67 68 71 72 69 67 66 65 65 66 69 73 75 79 81 83 85 80 77 80 82 81 81 83 85 82 77 76 80 79 75 77 79 79 80 81 79 80 85 87 86 84 82 81 78 75 72 69 69 70 72 74 74 72 72 74 75 76 75 74 75 76 77 75 73 72 70 70 66 64 66
26 27 30 36 42 42 34 34 38 40 41 35 44 69 71 62 60 53 50 51 54 60 60 58 60 62 65 67 70 71 68 65 63 63 63 65 68 70 73 77 80 79 81 82 79 76 78 81 79 76 76 76 75 76 77 76 76 79 79 80 84 86 83 84 88 87 86 83 80 80 75 71 70 68 69 71 73 75 76 76 77 76 75 75 76 79 80 81 81 77 75 71 66 65 62 64 69
25 31 35 36 40 41 34 31 37 42 41 35 46 67 68 62 59 53 50 51 54 59 59 58 58 60 62 65 66 67 66 63 61 61 62 64 67 69 71 73 77 76 75 75 74 74 76 77 76 75 74 75 77 77 77 78 80 81 80 81 84 85 87 90 88 84 87 87 82 78 73 70 69 68 70 74 76 78 80 80 79 77 77 79 81 84 83 82 79 73 71 67 64 63 61 61 68
25 31 38 36 37 41 35 30 31 37 39 36 46 64 67 62 57 52 50 51 54 58 58 57 57 58 60 62 62 63 65 63 61 62 62 64 66 68 69 70 73 73 70 68 70 73 75 75 76 77 77 79 82 81 82 86 85 82 82 82 81 80 80 83 87 82 79 87 90 85 83 80 77 79 82 82 82 84 82 79 79 81 82 85 86 86 86 85 78 70 68 71 73 72 69 65 65
28 28 33 32 33 38 37 32 29 32 38 38 45 59 63 59 55 52 51 50 53 56 56 56 56 58 59 60 59 60 64 65 63 62 62 64 66 66 66 66 69 70 69 66 67 71 73 75 77 79 82 83 83 83 86 87 85 81 79 77 76 76 77 80 87 82 76 89 95 88 91 90 85 89 94 93 88 84 78 75 80 85 85 85 85 86 89 87 79 74 75 79 82 82 80 75 70
26 27 28 28 30 34 35 33 30 32 37 40 49 59 59 57 56 53 51 50 53 55 54 54 56 58 58 59 58 59 62 64 61 59 61 64 65 64 64 64 66 69 70 68 68 71 72 74 76 78 80 79 77 78 79 80 79 77 74 74 76 78 82 85 89 89 87 91 86 80 87 90 87 90 95 93 85 78 76 77 83 87 85 83 83 85 86 83 80 82 85 84 85 87 87 84 80
22 24 24 26 30 32 31 30 29 33 38 43 51 56 56 59 58 54 51 50 52 54 53 54 57 58 58 59 58 58 62 62 58 56 60 65 65 64 64 66 67 68 70 71 72 73 74 75 78 78 77 74 73 75 77 77 77 77 75 76 78 81 86 88 88 89 88 83 80 80 81 81 82 85 88 85 78 76 78 80 84 84 82 84 86 86 83 83 85 86 87 87 88 89 87 88 90
20 21 22 24 28 30 27 28 29 31 37 44 47 50 55 59 58 54 51 51 54 55 56 57 58 59 58 59 58 58 61 60 57 57 61 66 67 66 67 69 70 71 73 75 75 76 76 76 79 78 74 73 74 77 79 78 78 79 78 76 76 79 83 85 85 84 80 78 82 84 80 79 79 79 79 78 77 77 78 78 76 73 75 80 85 87 86 88 90 86 84 88 93 94 88 87 94
17 20 23 24 26 27 25 27 30 30 36 45 46 49 54 57 57 53 51 53 55 56 56 58 60 60 59 60 59 59 61 60 60 63 65 68 70 70 70 71 73 74 76 77 75 76 76 76 76 73 71 73 74 75 76 77 78 76 74 73 73 75 78 80 81 79 78 83 87 85 84 83 80 79 77 78 81 80 78 74 68 69 76 79 80 81 81 82 86 87 87 89 93 97 95 92 97
15 19 22 24 28 27 23 25 30 30 35 45 49 51 53 54 54 52 51 53 53 52 54 55 58 61 62 61 59 59 63 67 67 67 68 70 72 73 73 73 74 73 74 75 74 75 76 76 74 70 70 72 73 74 75 75 76 73 72 73 74 76 76 76 78 80 82 86 88 88 88 82 75 76 77 79 81 78 74 71 70 75 79 79 77 75 75 76 82 86 90 93 94 98 100 96 95
15 18 20 24 29 27 25 27 31 32 35 42 50 55 53 51 53 52 49 49 50 49 50 52 56 60 61 59 58 60 65 70 70 68 69 71 72 75 76 75 76 74 74 76 76 76 75 74 73 71 70 69 71 73 74 73 73 74 77 77 77 76 74 74 76 80 82 83 87 90 93 86 77 75 76 75 73 70 70 70 73 77 76 77 81 82 84 86 86 87 89 94 98 99 101 97 91
19 17 16 21 25 25 27 27 28 34 37 41 49 58 59 55 56 55 49 47 48 48 50 53 55 56 58 58 57 59 64 69 70 70 71 71 73 76 77 76 77 77 76 75 75 74 71 69 68 69 68 68 70 71 73 75 75 78 81 83 82 78 76 77 76 75 78 83 86 84 86 88 81 74 72 71 72 73 74 75 77 78 77 81 85 85 85 85 82 82 84 86 88 92 95 93 89
20 19 17 17 19 23 28 26 28 37 42 42 44 56 67 65 59 55 50 49 49 47 49 53 55 57 58 59 59 59 63 67 68 69 71 71 72 75 77 78 78 78 75 71 70 69 66 62 63 65 65 68 70 71 75 79 79 79 82 84 84 81 80 79 76 71 69 75 78 73 75 82 77 70 70 73 75 76 76 77 78 77 77 79 80 77 77 77 74 73 76 75 77 83 86 87 89
21 24 21 14 15 21 26 26 29 37 42 40 36 48 67 66 57 54 52 52 50 49 49 49 52 57 58 57 58 60 62 67 68 69 71 71 72 76 79 80 79 77 73 70 68 66 63 59 60 61 63 69 73 75 79 82 82 83 82 80 79 79 76 74 75 70 60 62 68 66 68 73 70 67 70 72 72 73 75 76 75 75 75 75 75 76 76 76 74 72 72 72 75 81 87 91 93
22 25 21 15 14 19 25 26 27 33 39 41 39 48 64 64 54 50 51 54 53 51 51 49 49 53 56 56 56 59 62 66 69 71 73 72 73 77 79 80 79 75 72 72 71 67 61 59 60 60 62 70 76 79 82 84 85 85 83 79 78 77 71 68 73 68 57 57 61 61 63 67 68 68 69 71 72 74 74 73 74 74 73 74 76 76 77 76 75 74 72 72 75 79 88 92 87
20 19 16 15 12 16 25 25 25 31 40 50 50 47 56 70 67 53 49 55 55 52 50 49 49 51 54 55 55 58 60 64 68 71 73 73 73 75 78 79 79 76 73 73 71 67 62 61 61 61 65 72 78 82 84 84 84 81 79 79 79 78 74 71 70 62 54 56 59 60 62 66 68 67 66 70 73 72 72 73 73 70 69 73 76 72 73 75 74 74 73 74 76 77 83 86 79
15 13 12 16 15 16 23 27 32 37 42 52 55 43 44 67 75 60 53 55 52 49 47 46 48 50 52 54 54 56 59 64 66 68 71 73 72 74 77 79 79 78 75 71 70 68 65 65 67 67 67 71 78 81 81 80 80 77 77 80 75 71 74 73 65 58 56 59 61 61 63 67 68 67 67 70 71 71 73 74 71 65 65 72 73 68 69 73 73 74 75 76 75 75 78 79 78
11 12 10 14 25 31 39 45 44 44 47 48 48 42 39 51 64 60 53 50 45 44 44 44 45 48 52 53 53 55 59 64 66 66 69 71 72 73 76 79 80 80 78 75 74 72 70 69 71 70 69 70 75 77 74 71 72 74 77 77 66 58 66 67 59 57 60 62 62 62 65 70 70 68 67 67 69 73 75 74 67 60 64 72 71 68 67 69 70 71 73 73 72 73 75 76 78
11 14 10 13 33 43 45 46 39 42 51 47 43 42 39 44 54 55 46 39 38 40 40 42 43 45 50 52 53 54 58 62 65 66 68 71 74 76 77 79 80 81 82 81 78 76 74 73 71 72 71 71 74 73 68 66 69 72 75 73 59 50 55 57 53 56 61 63 61 59 65 72 70 67 65 62 67 75 74 70 65 59 64 71 69 68 68 67 68 67 67 69 71 72 73 73 75
12 17 15 16 31 35 32 37 38 41 47 42 40 42 43 46 46 45 44 39 35 36 36 37 39 42 46 51 53 54 57 60 64 67 68 71 75 77 79 80 80 82 83 83 82 79 78 75 72 73 73 73 73 70 67 68 69 69 70 68 56 48 50 50 50 53 57 57 53 54 62 70 70 66 63 61 66 76 72 66 64 58 60 66 65 64 66 64 64 64 65 67 69 71 72 72 72
13 17 19 19 28 27 27 40 41 38 38 33 35 44 49 49 40 35 38 38 34 33 33 33 36 39 43 47 51 53 57 60 63 66 69 72 75 76 78 80 80 81 82 82 81 79 79 78 75 74 74 73 72 71 71 71 69 67 68 62 52 49 49 49 49 50 50 48 48 53 61 69 70 65 61 60 66 73 70 64 62 56 56 61 61 60 60 60 61 62 64 65 66 67 69 70 71
14 18 19 20 31 30 27 36 35 32 33 28 35 50 50 42 37 35 34 32 33 33 32 33 36 38 40 44 49 53 57 60 62 65 68 72 74 74 76 78 79 80 80 80 80 80 79 78 76 76 76 75 73 73 74 72 69 68 65 57 51 50 49 49 50 50 48 45 48 55 62 67 68 63 60 61 66 69 66 62 60 58 59 62 61 61 62 62 62 63 64 64 65 66 67 68 69
15 19 17 17 27 27 25 34 37 34 30 29 41 52 49 38 34 43 46 37 34 35 35 38 39 39 41 46 50 53 57 60 63 65 68 72 74 74 75 77 78 78 79 80 80 80 80 78 77 77 77 75 74 75 75 72 70 68 61 53 51 50 48 48 51 51 48 46 48 55 61 65 65 62 61 63 66 67 63 60 58 61 64 63 63 65 66 65 65 65 65 64 64 66 68 69 68
17 17 19 19 19 19 22 29 34 31 26 35 41 36 36 32 28 44 55 44 40 42 39 39 39 40 45 50 50 51 56 61 63 65 68 72 75 75 75 74 76 77 78 80 80 79 78 76 76 79 79 77 76 76 75 71 69 64 57 52 51 49 47 47 49 49 49 49 51 55 60 64 64 62 61 62 63 63 60 56 56 63 66 64 64 67 67 67 66 66 65 64 64 64 65 66 67
16 14 17 19 16 21 30 31 32 32 30 38 38 27 28 31 32 48 55 49 49 47 40 39 41 43 46 49 49 49 53 58 62 65 67 71 75 75 74 73 74 75 76 78 78 78 78 76 76 79 81 79 75 74 73 70 66 60 55 53 52 48 47 48 50 50 50 50 53 58 62 63 63 61 60 60 59 59 59 57 59 65 67 66 66 67 67 66 64 64 64 63 62 60 59 60 62
11 13 14 16 18 24 30 29 30 33 32 36 36 34 36 36 41 47 47 53 56 48 44 43 42 45 46 46 48 48 51 57 62 65 68 72 74 74 73 72 72 74 75 76 77 78 79 79 78 79 79 76 72 72 72 69 65 60 56 55 51 48 49 50 51 51 50 51 53 58 61 59 60 60 58 58 59 60 61 62 63 66 68 68 68 67 67 66 64 64 62 60 59 58 58 58 59
10 12 11 13 21 25 24 26 30 29 35 43 38 34 37 42 48 41 36 51 58 49 49 46 43 45 43 44 47 47 50 57 61 64 66 70 72 72 72 71 72 72 73 75 77 79 80 79 79 79 78 77 74 74 72 68 64 60 58 56 51 49 51 52 52 51 50 52 53 56 56 54 56 57 56 59 65 67 65 65 66 69 69 68 67 67 67 66 64 62 59 58 57 57 58 59 61
12 13 14 13 17 22 22 27 32 30 40 52 41 34 43 52 53 40 31 47 55 48 47 45 44 45 42 42 45 45 48 54 59 62 64 67 69 70 70 70 71 71 72 75 75 77 78 78 79 78 77 77 76 76 73 67 65 62 59 56 50 48 52 52 51 51 50 52 54 55 54 52 53 55 58 63 68 70 69 69 68 69 67 64 63 64 64 64 62 58 56 55 56 57 59 62 66
11 12 15 14 14 21 22 24 30 29 35 47 39 31 39 48 50 42 36 47 51 45 44 45 44 43 42 43 42 43 47 50 56 59 60 64 67 68 70 70 70 71 72 74 74 76 77 77 77 77 77 76 75 75 73 70 67 64 60 56 50 48 51 52 51 52 51 52 54 56 56 56 56 57 60 63 66 68 69 68 67 66 64 60 60 62 62 61 57 53 53 54 55 59 61 63 67
Wind_Speed
9 9 7 6 4 1 2 0 1 2 2 4 3 3 2 3 5 5 5 4 3 2 2 6 7 7 7 6 8 7 8 3 1 2 3 5 12 12 10 12 15 15 16 19 19 19 20 21 24 25 25 25 25 24 25 27 27 25 25 25 26 26 26 25 23 23 22 22 22 21 21 21 21 20 20 19 18 17 16 16 15 13 12 11 10 10 10 8 8 8 8 7 5 4 4 3 3
10 8 8 6 2 1 1 1 3 2 4 4 3 3 4 4 5 5 5 4 4 3 7 9 9 11 11 9 6 6 9 8 5 5 5 13 18 13 13 14 17 18 19 20 20 21 21 21 24 24 25 26 25 23 24 25 26 26 26 27 27 26 26 25 24 23 23 22 22 22 21 21 21 21 20 18 17 16 16 15 14 13 11 10 10 10 9 8 7 7 7 6 5 4 3 3 2
10 7 7 5 2 2 1 2 3 2 4 4 3 4 5 6 6 6 7 8 9 9 10 9 9 7 6 6 5 5 4 5 9 8 7 15 14 12 18 17 20 21 21 23 21 22 22 22 25 25 25 27 27 25 25 25 26 27 27 28 27 26 26 25 24 24 24 23 22 21 21 21 21 21 20 18 17 16 15 14 13 13 11 10 10 10 9 8 7 6 6 6 5 4 3 2 0
10 8 6 4 2 2 1 3 2 3 4 3 3 5 7 7 8 8 8 9 8 8 7 5 5 4 6 9 4 5 5 3 7 7 5 10 12 17 21 19 21 21 22 24 22 22 22 24 25 26 26 28 29 28 28 27 27 28 28 28 26 26 25 25 25 24 24 23 22 21 20 20 20 20 19 18 17 16 15 14 13 13 12 11 10 10 9 8 7 6 5 5 5 4 3 2 2
9 8 5 5 2 1 2 2 1 3 4 3 4 7 9 9 9 9 7 7 6 5 5 4 4 4 8 7 1 3 4 4 7 8 8 11 18 23 22 21 23 22 22 23 23 23 21 24 25 26 26 26 28 29 30 30 29 29 28 27 26 25 24 24 24 24 23 21 21 20 20 20 20 20 19 18 17 16 15 14 14 13 12 11 10 10 9 8 7 6 4 4 3 3 3 3 2
10 8 3 3 0 1 2 3 2 3 2 3 6 7 10 10 10 11 10 9 8 7 6 6 7 7 6 3 3 3 4 6 7 9 12 17 22 23 23 24 23 23 24 23 24 23 22 23 25 25 24 26 27 28 30 30 29 28 27 26 25 24 23 23 23 22 21 21 21 20 20 20 20 19 18 18 16 16 15 15 14 13 12 11 11 9 9 7 6 4 3 3 3 2 2 2 3
10 6 2 2 0 0 3 3 4 3 1 5 8 9 11 10 11 12 11 9 8 8 7 7 9 10 6 2 4 5 7 8 8 12 19 23 24 24 24 24 23 24 24 24 24 23 22 22 23 23 23 24 26 27 27 27 27 25 24 24 24 23 23 23 22 22 21 21 21 20 20 20 20 19 18 17 16 16 15 15 14 13 12 11 10 8 7 6 4 3 3 3 4 4 3 3 3
8 3 1 2 2 2 3 3 3 3 2 7 10 11 13 12 11 10 8 7 6 5 7 7 7 9 6 4 4 5 11 11 13 19 25 26 25 24 25 24 24 25 25 25 23 22 22 21 21 21 21 22 23 25 25 26 25 24 24 23 23 23 23 23 23 22 22 22 21 21 20 20 19 19 18 17 17 16 15 15 14 13 11 10 8 7 5 4 4 4 4 4 5 5 5 5 5
5 2 1 2 2 3 3 3 3 3 5 8 10 11 12 10 9 10 9 7 7 6 8 6 3 7 7 7 6 5 11 16 20 23 26 25 25 25 24 25 25 25 25 25 23 21 21 21 21 21 21 21 21 23 24 24 23 23 23 23 23 23 23 24 24 23 22 22 21 20 20 19 19 18 17 17 16 15 15 14 12 11 9 8 6 5 4 3 4 5 4 4 5 6 6 6 7
2 1 1 1 2 4 4 3 3 4 6 9 10 11 10 9 9 11 11 9 8 7 7 6 6 10 10 7 5 4 11 20 24 25 25 24 24 25 25 25 25 25 25 25 23 22 21 21 21 21 20 20 21 21 22 23 22 22 22 22 22 23 23 23 23 23 22 21 21 20 19 19 18 17 16 15 14 14 13 12 11 9 7 6 4 3 3 4 4 5 4 5 5 6 7 8 8
1 1 1 2 3 4 3 3 4 5 7 8 8 9 10 11 11 10 11 9 7 8 8 8 8 11 11 5 3 7 16 22 25 25 25 23 23 25 26 25 25 25 25 25 24 22 22 21 20 20 20 21 22 22 22 22 22 22 21 22 22 22 23 22 22 22 21 21 20 19 18 17 16 15 14 13 12 12 11 10 8 7 5 4 3 3 3 4 5 5 6 6 7 8 9 9 9
0 1 3 3 2 2 4 5 6 6 8 9 8 7 8 12 12 10 12 9 8 11 8 5 6 9 9 3 2 11 17 19 22 24 23 21 22 25 25 24 24 25 25 25 24 23 22 21 21 21 21 21 21 21 21 21 21 21 21 21 21 22 22 22 22 21 21 20 19 18 16 15 14 13 12 12 11 11 10 9 7 5 4 3 3 4 5 5 6 7 7 8 8 9 10 11 10
1 3 4 3 2 3 4 5 6 8 6 7 8 7 9 11 12 11 11 11 11 10 6 6 7 6 7 4 4 10 13 16 21 22 22 21 22 24 23 22 23 24 24 24 24 22 22 21 21 21 21 21 20 20 20 20 20 20 21 21 21 21 21 22 22 21 21 19 18 16 15 14 13 12 11 11 11 10 9 7 6 4 3 3 4 5 6 7 8 9 9 10 10 11 11 12 12
3 2 4 2 1 2 4 5 5 7 4 5 8 9 8 7 11 12 12 13 9 7 9 10 9 8 7 5 6 6 11 19 21 22 23 22 22 23 23 23 23 22 22 22 22 21 21 21 21 21 20 20 20 19 18 19 19 20 21 21 20 21 21 21 21 20 19 19 17 16 14 13 12 12 11 10 10 9 8 7 5 4 4 4 5 5 7 8 9 10 11 11 12 11 12 13 13
6 0 4 3 2 1 3 4 6 7 4 7 9 9 7 6 12 13 13 12 5 8 12 9 6 7 7 7 7 8 14 23 23 23 24 22 21 22 23 24 23 23 22 21 21 20 21 21 20 19 19 19 19 19 18 18 18 19 20 20 20 21 21 21 20 20 19 17 16 15 13 12 12 11 11 10 9 9 8 7 6 6 6 6 7 7 8 9 10 11 11 12 12 12 13 13 14
5 1 5 3 1 2 3 4 6 7 5 7 9 10 10 7 10 8 7 9 9 10 9 7 5 4 8 7 9 15 21 26 24 24 24 22 20 22 24 23 24 24 23 22 22 22 21 21 20 19 19 19 19 18 18 18 17 18 19 19 19 20 20 19 18 18 17 15 14 13 12 12 11 10 10 10 9 9 9 8 8 8 8 8 8 9 9 10 10 10 10 11 11 12 12 13 13
1 2 4 2 3 4 3 5 6 7 7 8 10 12 13 8 5 4 5 9 13 11 4 5 4 5 9 8 15 23 25 27 26 25 24 22 20 20 20 21 22 23 22 22 23 23 22 22 21 20 20 19 19 18 17 17 17 17 18 18 17 17 17 17 16 15 14 13 12 11 11 11 10 10 10 10 10 10 9 8 9 9 8 9 9 9 9 10 9 8 8 9 9 10 11 11 11
2 2 3 3 4 4 5 6 6 8 10 11 12 13 16 12 7 6 7 9 11 9 6 7 7 7 11 15 23 25 25 27 26 26 22 19 18 17 18 19 21 21 21 21 22 23 23 23 22 22 21 20 19 18 17 17 17 16 16 17 16 16 16 15 14 13 13 12 11 10 10 10 10 10 10 10 10 9 9 9 9 9 9 10 9 9 9 8 7 6 6 7 7 8 9 9 10
3 3 3 4 5 4 5 7 8 11 13 13 13 13 14 14 12 8 9 10 9 9 8 9 10 10 12 18 24 24 24 25 24 24 21 18 18 17 18 19 21 21 21 22 22 23 24 24 23 23 23 21 20 18 18 18 18 17 17 16 16 16 16 15 14 13 13 12 11 10 10 10 9 9 10 10 10 10 10 10 10 11 11 11 9 8 8 7 5 5 5 5 6 7 8 9 9
2 3 3 5 5 4 3 8 10 13 16 15 12 10 11 13 12 9 11 12 10 10 10 10 11 13 14 16 21 24 23 22 23 23 21 20 20 20 19 19 21 22 23 23 22 22 24 25 24 24 23 23 22 20 19 19 18 18 18 16 15 16 16 16 16 15 14 13 12 11 10 11 10 10 9 10 10 11 11 11 11 12 12 11 9 8 7 6 5 5 5 5 6 7 8 8 9
2 4 5 6 4 4 5 9 10 12 16 15 13 11 11 12 10 9 13 12 6 8 12 15 16 17 17 16 18 22 21 20 21 20 20 20 20 20 20 22 23 24 24 22 23 23 24 25 25 25 24 24 23 21 21 20 19 19 18 16 15 16 17 17 16 16 15 13 12 12 12 12 11 11 10 10 11 11 11 10 10 11 11 10 9 8 7 6 6 6 5 6 7 8 8 8 9
2 5 7 6 6 6 6 9 11 12 13 13 13 13 12 11 9 12 16 12 8 10 12 16 19 19 20 19 19 20 19 19 18 18 19 19 20 20 20 22 22 22 22 21 24 24 24 24 24 25 25 25 23 22 21 21 20 20 20 18 16 16 17 17 16 15 14 13 13 14 14 13 13 12 11 10 11 11 11 10 10 11 10 10 10 9 7 6 6 6 6 6 7 7 7 7 7
3 6 6 7 8 7 6 9 12 12 13 13 13 12 12 11 8 13 15 11 11 12 13 16 18 21 23 22 20 18 17 18 19 21 21 20 21 21 22 22 21 22 22 23 25 24 24 24 24 25 25 25 23 21 20 21 21 21 20 19 18 17 17 17 16 15 13 13 13 14 14 13 13 13 12 10 10 11 11 11 12 11 10 10 10 9 8 7 7 7 6 5 5 6 7 8 8
6 6 6 11 11 9 7 10 13 13 14 12 11 11 13 13 11 11 7 4 9 12 12 14 17 20 22 19 18 18 17 18 21 24 25 24 24 24 25 24 25 25 23 24 25 25 25 25 25 25 24 25 23 20 20 20 20 21 20 19 19 18 18 17 15 14 13 13 12 13 13 13 13 13 13 12 11 12 13 13 13 12 11 10 9 7 7 8 8 7 6 5 4 5 8 10 10
8 7 6 11 10 9 8 10 12 12 10 9 10 11 11 12 11 7 5 5 10 13 13 14 15 17 17 17 17 16 16 18 20 23 24 24 24 24 24 26 27 26 26 26 27 27 26 25 25 25 24 24 23 20 19 20 20 21 20 20 19 19 18 18 15 14 13 13 13 13 13 12 13 13 13 13 13 14 14 14 13 12 12 10 8 6 6 7 7 7 5 5 5 7 10 10 11
6 8 8 10 9 10 10 10 12 10 7 10 12 9 7 11 10 4 3 9 12 13 15 14 15 16 15 15 16 15 15 17 19 21 23 23 23 23 23 26 27 29 30 29 28 27 27 25 26 26 23 23 22 19 20 20 20 21 20 20 20 20 19 17 16 15 14 14 14 14 14 13 13 14 13 13 14 14 14 14 14 13 13 12 9 7 6 6 7 6 5 6 7 8 10 11 12
5 9 8 10 12 11 11 11 11 9 7 12 14 9 8 9 8 3 4 9 13 15 15 15 15 15 15 14 13 14 14 17 21 21 21 21 22 23 25 27 28 31 31 29 28 27 26 26 26 26 22 21 21 19 20 21 21 21 21 21 21 20 18 17 17 16 15 15 16 16 15 15 15 15 15 15 15 15 14 14 15 14 14 12 10 9 7 7 7 7 6 7 9 10 12 13 13
10 12 8 9 11 9 11 12 11 9 6 10 15 10 6 4 3 7 10 11 14 17 16 15 14 12 13 13 12 12 13 18 22 21 20 20 22 23 25 27 29 30 30 29 28 26 26 26 26 25 24 22 22 20 20 22 23 21 21 22 22 21 20 19 18 17 17 17 18 19 16 15 16 17 17 17 16 15 15 15 15 14 14 12 11 10 9 8 8 8 9 10 10 12 14 13 12
11 14 11 8 9 7 8 10 10 9 7 11 16 9 2 1 3 10 13 13 13 16 16 15 13 11 11 12 11 10 12 17 20 20 21 22 23 24 25 28 30 29 29 30 29 26 26 27 26 25 24 23 23 22 21 23 24 22 21 22 22 21 21 20 20 20 19 18 19 19 17 16 17 18 18 18 17 16 16 15 15 14 13 12 12 11 11 11 10 10 11 11 12 13 13 11 11
9 10 10 8 7 5 6 6 8 9 10 13 12 5 3 2 6 12 13 14 14 13 14 13 11 10 11 11 10 10 12 15 16 19 22 23 24 25 26 28 29 29 27 28 28 27 26 27 27 26 25 25 24 23 22 23 23 22 22 22 23 23 21 20 19 19 17 16 17 18 16 16 17 18 19 19 17 16 16 15 14 13 13 12 11 11 11 10 10 10 11 11 12 11 11 10 10
7 6 4 6 7 6 6 4 8 8 8 8 9 3 6 4 9 13 13 14 16 14 13 12 11 10 10 10 10 10 11 14 18 21 23 25 26 26 27 27 28 28 26 27 28 27 27 28 28 27 26 26 25 24 24 23 21 20 20 21 24 23 21 20 18 16 17 16 17 17 16 16 17 18 19 19 18 17 16 15 13 12 11 11 11 10 9 8 8 9 9 9 9 9 9 8 8
4 5 1 3 6 6 5 5 8 11 10 5 7 3 4 6 11 13 13 14 15 15 13 12 11 11 11 9 10 10 10 14 19 22 24 27 28 27 27 28 29 29 28 28 28 27 28 29 29 28 28 28 27 26 26 23 20 19 19 19 20 19 18 18 16 15 15 16 18 18 17 16 17 19 20 20 18 17 15 13 12 10 10 10 10 10 9 8 8 7 6 6 7 7 7 7 7
3 3 5 6 6 7 5 7 10 10 12 6 3 5 4 6 12 13 14 15 15 14 13 13 12 12 11 10 10 10 9 11 14 19 24 27 28 29 29 29 30 31 31 30 29 29 30 29 29 29 28 28 27 25 25 23 20 18 17 17 17 16 15 15 14 13 12 16 18 17 16 17 17 18 19 20 18 15 12 10 10 10 9 10 10 10 9 9 8 6 6 6 7 8 8 9 9
4 1 5 7 9 10 7 7 9 7 10 8 4 8 7 8 14 15 15 16 15 14 14 14 12 11 11 10 10 10 10 10 10 15 23 26 28 30 30 30 31 32 32 31 30 30 30 30 30 29 29 28 27 25 24 23 21 18 17 17 17 16 14 12 12 12 13 16 16 15 16 18 18 18 18 17 13 10 11 10 8 8 9 9 9 10 10 9 8 8 8 7 8 9 9 10 9
8 4 6 6 8 13 12 10 10 10 10 7 7 7 6 9 15 15 15 16 15 14 14 14 13 13 12 11 10 10 10 11 12 17 24 27 29 30 30 30 31 32 32 31 31 31 30 31 30 30 30 28 27 26 25 24 22 20 19 18 16 14 12 10 10 11 14 16 14 13 16 17 18 17 15 13 9 9 10 7 6 7 7 8 10 10 10 9 9 10 11 10 10 10 12 11 10
10 7 8 9 8 10 12 9 11 15 10 6 9 9 8 12 15 15 15 16 15 14 13 12 13 13 12 11 11 11 11 12 15 20 24 27 29 30 29 30 31 32 32 32 32 31 31 31 31 31 30 28 27 27 26 24 23 21 19 18 16 13 12 11 11 12 13 13 12 13 14 15 15 14 11 11 9 8 6 4 4 5 5 7 9 11 10 10 10 11 12 13 13 13 14 14 12
9 5 5 9 11 9 9 7 9 14 9 6 8 9 12 15 16 17 16 15 14 14 13 13 13 12 12 13 12 13 12 12 16 21 24 27 28 29 29 29 30 30 30 31 32 31 32 31 31 31 29 28 28 27 26 25 24 21 19 18 17 16 14 13 13 13 13 11 10 12 12 11 12 12 10 9 10 8 6 4 3 3 5 6 7 9 10 12 13 13 12 13 15 15 15 15 12
6 5 3 4 7 8 8 7 9 11 6 4 5 7 12 15 16 15 14 16 15 15 16 15 15 14 12 13 15 14 11 10 12 16 20 25 26 26 28 29 30 29 29 31 32 31 31 30 30 30 29 28 28 27 27 26 25 23 20 19 19 18 17 16 15 13 12 10 9 10 9 7 9 10 10 11 11 9 6 3 3 4 5 5 6 6 7 9 11 11 12 14 16 15 16 16 13
3 3 4 3 4 1 2 4 9 10 4 3 6 7 8 10 13 14 15 17 15 15 17 16 16 15 12 13 14 14 11 9 10 12 17 22 24 25 27 28 30 31 30 31 32 31 30 30 30 29 28 28 28 27 26 25 24 22 20 18 16 16 15 14 12 9 8 8 8 7 7 7 8 11 12 11 9 7 5 4 4 5 4 4 4 4 4 5 6 7 9 13 15 15 16 15 13
3 3 4 4 4 3 2 5 9 8 2 3 5 3 1 4 7 9 13 14 11 12 15 14 14 15 16 16 15 14 13 12 12 13 14 19 23 24 26 27 28 30 30 30 31 31 31 31 30 29 28 28 28 27 26 23 21 21 20 17 14 12 11 9 8 7 6 6 7 7 8 9 10 11 10 9 8 6 5 5 5 5 3 4 4 4 4 4 4 5 7 9 11 13 14 12 10
3 5 6 3 5 7 4 4 7 4 3 5 8 4 2 4 7 9 10 10 9 9 11 11 12 14 14 14 13 14 14 14 14 14 14 16 21 24 27 28 28 28 29 31 32 32 32 32 31 30 29 29 28 27 25 23 22 21 19 16 13 11 9 8 7 8 7 7 8 8 9 10 11 10 10 9 8 7 6 6 5 4 3 3 3 3 3 3 3 3 4 4 4 8 9 8 7
3 4 8 8 8 7 7 11 10 4 2 4 8 3 5 4 8 10 8 9 11 8 10 13 13 12 11 10 12 13 13 13 13 14 14 15 19 23 26 27 27 28 30 32 34 34 33 32 31 31 30 30 29 27 25 25 24 22 20 18 15 12 11 11 10 10 10 10 10 10 10 12 12 11 11 10 10 8 7 7 5 4 3 2 2 2 1 2 1 1 3 3 2 3 5 5 5
3 6 8 10 9 7 11 15 11 7 6 7 9 6 4 4 8 11 9 10 13 9 11 15 13 12 12 11 12 12 12 12 12 13 14 15 19 21 23 26 28 30 32 33 33 34 34 32 31 31 31 31 29 27 26 26 25 24 23 21 19 17 14 13 12 11 11 12 12 12 12 13 12 11 11 11 10 9 8 7 6 5 3 2 2 3 3 3 2 1 2 3 2 2 4 5 6
4 5 7 8 8 7 12 15 11 7 3 4 7 4 2 4 8 11 10 9 12 12 13 15 14 13 14 13 14 13 14 13 12 13 14 16 19 22 24 28 30 32 32 32 32 34 34 32 31 31 31 31 29 28 28 27 26 25 23 21 20 18 15 14 12 11 12 13 14 13 13 13 12 11 10 10 9 9 8 8 6 4 3 3 3 3 3 3 2 2 1 2 2 2 3 5 6
7 6 7 7 8 8 10 12 9 6 5 4 6 4 3 4 5 6 10 9 12 16 17 17 16 16 16 15 15 15 15 15 14 15 16 17 21 26 29 30 32 33 32 32 33 34 34 32 31 31 31 30 28 27 27 26 26 24 22 20 19 17 14 13 13 14 14 15 15 15 14 14 12 10 9 9 9 8 8 7 5 3 2 3 3 2 2 2 2 1 1 2 2 2 2 3 5
6 5 5 2 2 4 7 8 5 4 5 7 10 9 5 5 3 6 8 9 13 16 17 16 16 17 16 16 17 16 14 13 14 15 16 19 25 30 30 31 31 32 33 34 34 33 33 32 31 31 31 30 28 27 27 26 25 24 21 19 17 15 14 15 16 17 17 16 16 16 15 14 12 9 8 9 9 8 7 7 4 2 3 3 3 2 2 2 1 1 2 3 3 3 3 3 4
3 3 3 3 3 2 2 1 4 4 4 8 13 15 10 5 4 6 9 13 19 17 14 14 14 15 17 16 16 16 14 13 13 14 14 19 25 27 28 29 30 31 32 33 33 33 33 32 32 32 31 30 28 27 26 26 25 24 21 19 16 15 16 18 20 20 19 18 17 15 15 14 12 10 9 8 8 7 7 6 3 2 3 3 2 2 2 2 2 2 2 3 3 4 4 3 4
4 2 3 1 4 3 4 4 3 4 5 7 11 13 9 6 5 7 13 18 21 19 16 18 19 19 18 16 15 15 14 13 13 13 13 15 17 20 24 27 29 30 30 31 32 33 33 33 32 32 31 30 29 29 28 27 26 24 21 19 18 17 19 21 22 21 21 20 17 14 14 14 11 10 9 8 7 8 7 6 3 2 2 2 1 1 1 2 2 2 2 3 4 5 4 4 4
5 4 5 4 2 1 0 1 1 4 6 6 9 10 6 7 7 9 15 18 20 19 18 20 22 21 19 17 16 13 13 13 14 13 12 13 13 16 22 25 27 29 29 31 32 32 33 33 33 33 32 31 31 30 30 29 27 25 22 21 21 20 20 22 22 22 21 19 16 14 13 14 13 11 10 8 8 9 8 6 4 3 2 1 2 1 1 2 2 3 3 4 5 6 6 5 5
6 6 6 5 3 2 3 3 0 2 6 5 7 10 5 5 5 9 15 21 23 20 19 18 18 20 20 18 16 13 13 14 13 13 13 13 13 17 22 25 27 28 31 33 34 34 34 33 33 34 33 34 34 33 32 31 29 27 25 23 23 22 22 22 22 21 19 17 15 13 13 14 14 12 10 9 9 9 8 6 5 5 4 3 4 3 2 2 2 3 4 6 6 7 7 7 6
6 6 6 6 5 5 4 4 3 4 5 2 3 7 5 4 6 9 13 17 17 14 14 12 12 16 17 14 13 13 13 14 13 13 14 14 16 20 24 26 28 30 33 35 35 35 34 34 35 36 35 36 35 35 34 33 31 29 27 26 25 24 23 22 21 19 18 16 15 14 14 15 15 13 11 11 11 10 8 7 7 7 5 4 5 5 4 3 4 5 6 7 8 8 9 10 9
4 4 5 6 7 6 3 4 6 5 2 0 2 3 5 5 5 5 4 7 9 11 11 9 11 14 11 9 12 13 13 14 13 14 14 15 17 21 24 25 28 31 32 34 34 36 36 36 37 38 38 38 38 38 37 35 33 31 30 29 27 24 23 22 21 19 18 18 17 16 16 16 15 13 13 13 12 11 9 9 9 8 7 6 6 6 6 5 6 7 8 8 8 8 9 10 11
2 3 4 6 6 8 3 2 2 3 2 3 2 3 4 2 5 7 5 1 6 11 12 13 14 15 12 11 13 13 13 14 14 14 15 15 16 21 24 27 28 29 30 33 36 39 41 40 40 40 40 39 38 38 37 35 35 34 33 31 28 25 24 22 21 20 19 18 17 16 16 16 15 14 14 14 13 12 11 10 10 10 9 8 7 8 8 7 8 9 9 9 8 8 8 9 11
5 5 7 3 3 3 3 2 0 3 2 4 3 5 4 2 3 5 3 2 6 11 14 14 14 14 14 13 14 15 15 15 15 15 14 14 15 20 25 28 30 32 34 37 40 42 42 41 42 42 40 39 39 39 38 37 36 35 34 32 28 26 24 22 22 21 20 19 18 17 17 16 15 14 14 14 13 12 12 11 11 11 11 9 8 9 9 9 10 10 10 10 9 9 9 9 10
6 5 6 5 3 2 1 3 3 2 3 3 2 3 3 4 5 4 5 8 9 10 11 12 14 15 15 14 15 15 14 13 13 13 12 12 14 20 25 28 31 34 36 38 40 39 39 39 40 40 40 41 42 41 39 38 37 37 35 32 28 26 25 23 22 21 20 19 19 19 18 17 15 14 14 14 14 13 13 13 12 11 10 10 10 10 10 10 11 11 11 11 10 9 10 11 12
2 2 4 3 3 5 4 3 4 4 3 2 2 2 2 6 6 6 9 9 10 9 9 12 15 16 15 14 14 14 13 12 12 12 13 13 15 22 28 31 32 35 37 38 37 36 37 39 39 38 38 38 39 38 38 38 40 39 36 32 29 27 25 24 23 21 20 20 20 19 18 16 15 14 15 16 15 15 14 13 12 11 11 11 11 11 11 11 11 12 11 11 10 10 12 14 14
3 4 5 2 1 3 2 1 3 4 4 4 2 3 5 6 5 8 9 8 11 13 13 13 13 14 14 14 14 14 13 13 13 13 14 15 16 22 29 32 33 35 36 35 35 36 37 37 36 37 37 36 36 37 37 39 40 39 37 35 31 29 27 25 23 21 19 19 19 19 18 17 16 16 17 17 17 16 15 14 12 12 11 11 11 11 11 11 12 12 11 11 12 13 15 15 15
8 7 7 6 4 4 3 3 2 2 4 5 5 4 7 6 5 7 7 8 11 13 14 12 12 14 14 13 15 15 14 14 14 14 15 14 14 20 27 30 30 30 30 32 33 33 34 34 36 37 37 37 38 38 39 39 38 38 38 36 32 30 29 26 24 21 20 20 20 20 20 19 18 17 18 18 18 17 16 14 13 12 11 11 11 11 11 11 12 12 12 13 13 14 14 15 15
Wind_Direction
187 178 161 162 162 148 273 181 65 327 70 67 64 89 99 122 119 117 106 107 88 19 55 88 100 99 100 116 126 91 39 32 106 107 108 123 130 131 131 134 129 127 131 131 133 131 131 134 131 131 132 135 139 142 143 141 140 141 143 144 142 139 139 140 140 140 139 139 138 138 138 139 139 139 137 135 134 133 134 135 135 133 131 130 129 130 134 136 137 129 124 125 130 124 112 104 67
188 176 154 149 128 47 300 51 83 4 47 67 47 95 120 107 94 100 108 104 91 92 88 90 91 89 106 124 125 82 43 30 65 87 95 123 127 127 129 131 131 128 131 130 132 131 131 133 129 129 131 133 138 140 140 141 140 140 143 145 143 142 143 144 144 144 143 142 142 141 140 141 141 141 139 137 136 136 139 141 140 138 137 136 134 136 138 140 141 136 133 135 143 153 139 123 88
183 171 149 135 43 49 304 25 92 78 66 86 61 75 100 91 85 86 100 105 110 115 102 97 91 86 113 100 42 51 65 37 72 87 109 127 127 130 130 128 130 127 127 126 125 131 134 132 128 130 135 136 137 139 142 144 145 144 146 145 145 145 147 147 147 147 146 145 144 144 144 145 145 143 141 141 142 143 145 145 144 144 145 144 143 143 142 145 146 145 145 144 153 170 169 157 222
175 162 138 105 28 35 34 44 106 109 94 116 83 85 94 97 100 95 100 108 114 113 104 100 73 44 82 90 69 69 91 63 81 95 118 134 136 136 133 131 132 129 129 128 128 134 136 133 133 136 138 138 137 141 145 145 148 149 149 147 146 148 150 150 150 149 148 148 148 148 148 149 148 146 146 147 149 150 150 150 150 151 152 151 149 147 147 153 156 161 160 157 163 180 198 212 260
166 160 130 68 49 345 61 75 82 95 125 154 102 107 114 113 111 105 98 93 91 80 90 104 85 73 81 91 113 79 93 97 100 103 109 134 140 135 133 134 135 134 132 131 132 134 134 133 135 136 136 136 138 141 143 144 148 151 150 150 149 150 152 152 152 152 151 152 153 152 152 152 152 152 153 154 156 155 155 155 155 156 157 155 154 154 156 161 165 172 176 177 186 198 212 222 249
147 142 117 48 148 236 76 79 93 98 166 147 110 122 124 122 116 110 100 82 67 62 71 87 103 103 80 51 45 92 134 117 114 117 122 137 142 136 134 135 133 134 133 132 133 132 133 132 131 133 135 136 137 140 142 144 146 149 150 152 152 152 153 155 155 154 155 156 155 154 154 155 157 158 159 159 161 159 158 158 159 159 159 159 160 163 165 167 173 184 202 212 230 245 251 242 249
139 121 72 36 285 332 83 101 126 111 131 129 122 128 125 122 119 114 108 92 71 64 72 89 113 106 83 70 67 98 114 114 127 135 139 142 142 138 138 137 133 134 133 132 133 134 134 133 131 133 137 139 138 139 140 142 143 146 150 153 155 156 156 157 158 157 156 156 155 156 157 159 160 161 162 163 163 162 161 160 161 162 162 163 164 168 172 177 185 207 234 251 269 275 278 278 279
136 97 66 80 39 32 81 103 128 125 111 119 121 125 126 128 125 116 110 103 95 87 95 106 110 92 77 85 91 89 95 117 141 142 144 142 141 140 142 141 135 134 135 135 136 137 137 136 136 136 138 139 140 138 137 140 143 147 152 154 156 158 159 160 159 158 158 157 157 159 160 161 162 163 163 163 163 162 161 162 164 164 165 167 170 175 181 196 218 234 245 260 276 284 284 291 296
121 41 108 91 46 56 77 75 88 115 119 116 117 122 124 126 119 109 101 94 102 104 109 115 79 91 96 88 94 83 92 125 142 144 144 142 143 143 146 144 137 137 139 140 140 141 142 141 141 140 139 138 139 138 138 142 147 152 154 155 157 159 160 160 159 159 160 159 160 161 163 162 163 164 164 164 163 162 162 164 165 166 168 171 179 187 202 226 243 252 258 263 276 290 290 294 298
93 334 152 95 63 79 79 71 91 112 122 124 125 129 126 120 108 106 105 101 104 99 100 87 70 107 114 98 92 94 114 134 141 144 147 146 146 146 148 146 140 141 143 144 145 147 147 146 146 146 143 141 140 140 144 148 153 156 156 157 159 161 160 161 162 162 163 162 163 164 165 164 165 164 164 164 162 161 162 164 165 167 173 182 199 214 240 250 251 258 268 274 281 291 290 292 297
68 220 147 74 53 93 120 111 119 122 124 120 119 128 126 118 106 101 104 103 99 100 107 91 93 113 109 98 86 114 128 137 142 147 152 148 147 149 150 148 145 146 149 150 149 150 151 150 151 150 148 146 146 148 151 155 157 157 158 161 163 164 164 166 167 167 166 166 167 167 167 166 166 166 164 163 162 163 165 166 169 176 185 203 229 244 260 261 261 264 272 280 283 284 286 287 290
359 172 99 93 105 135 154 126 121 120 123 123 124 131 125 117 111 115 117 115 115 117 130 121 130 129 105 97 116 126 133 140 146 151 154 149 148 151 151 151 150 151 153 153 152 153 154 155 155 154 153 152 152 154 156 156 157 159 161 164 165 167 168 170 171 171 170 170 170 168 168 167 167 166 165 167 166 167 170 173 176 182 198 232 259 272 276 273 271 271 274 275 276 278 281 284 285
235 175 100 96 146 133 135 121 124 120 125 136 135 136 127 120 123 132 126 127 135 133 143 136 142 131 101 112 132 138 145 151 151 151 153 150 150 152 154 155 155 157 158 157 156 155 156 159 158 158 157 155 156 157 159 159 160 162 165 167 168 170 171 172 173 174 174 174 173 170 168 168 168 167 168 171 170 171 173 178 183 193 220 255 270 282 282 279 275 273 274 272 273 277 280 285 286
205 189 115 112 96 117 127 117 132 126 140 151 133 139 138 129 135 136 129 134 144 136 128 134 138 111 107 137 141 157 158 157 155 152 154 152 153 155 159 160 160 161 162 162 159 158 161 163 163 161 160 161 161 161 163 163 165 168 170 172 171 173 175 175 175 175 177 178 175 172 169 167 169 172 174 176 176 176 179 188 198 210 228 242 253 265 269 270 270 272 276 276 279 281 283 284 286
198 328 100 114 57 101 137 140 150 133 153 161 145 146 134 131 139 139 143 140 126 128 125 137 148 110 148 172 157 172 160 158 158 155 156 152 152 157 164 164 164 165 165 166 164 165 168 169 168 165 166 168 168 167 167 169 170 173 175 175 175 177 178 178 177 178 180 180 177 173 170 170 175 180 182 183 183 185 191 201 212 220 225 229 237 247 254 261 265 271 277 283 288 288 288 288 288
192 79 78 95 123 164 153 151 150 135 162 168 156 142 122 135 144 137 152 130 119 144 138 154 185 136 164 172 151 159 156 157 158 157 155 149 149 157 164 166 168 169 168 171 172 173 174 173 173 170 171 172 173 172 172 174 175 178 180 179 179 179 181 181 180 180 182 181 179 176 175 178 183 187 189 191 192 196 204 212 223 231 231 232 242 249 255 263 269 276 283 288 292 295 296 297 296
158 73 76 110 170 188 165 153 156 148 159 159 155 142 129 141 140 97 108 114 130 153 144 139 151 124 143 144 146 152 153 156 156 153 151 146 147 152 160 167 171 173 174 178 179 179 178 177 176 174 175 176 176 177 178 180 179 182 184 184 183 182 183 183 183 184 186 185 184 182 183 188 189 192 195 201 205 210 218 223 232 239 240 244 251 257 264 271 275 282 290 294 298 303 304 304 305
89 80 107 159 184 197 176 161 166 146 145 153 158 153 141 142 137 113 113 116 133 136 113 112 102 104 123 132 144 150 152 156 155 152 149 147 150 154 163 172 176 180 182 184 184 183 182 182 180 177 178 179 179 181 184 185 183 185 189 191 189 189 189 188 189 190 191 190 190 190 194 198 195 200 207 214 222 226 230 233 237 240 243 254 262 267 272 272 275 285 293 299 302 305 304 305 308
125 124 134 198 203 202 176 152 158 145 147 155 159 159 145 140 139 140 139 136 139 125 117 120 113 116 124 134 145 151 152 155 157 154 152 153 160 165 170 175 180 185 188 189 187 186 186 185 183 181 181 181 183 187 189 191 189 188 191 194 195 196 196 194 196 197 198 195 193 198 205 210 208 212 221 226 232 235 236 238 240 242 247 259 269 272 270 265 271 283 291 294 295 298 302 306 309
167 142 161 232 204 199 187 150 157 151 150 152 156 157 140 139 141 150 148 142 152 145 141 140 135 139 140 143 149 152 153 157 160 158 157 161 168 172 174 178 181 187 191 191 188 188 190 188 187 186 185 184 186 189 193 196 195 192 192 196 202 203 203 203 203 203 203 200 200 207 214 223 223 221 227 229 232 234 238 242 244 246 249 257 265 268 265 264 273 285 291 290 296 301 301 305 307
180 166 187 221 170 177 198 158 156 150 150 149 150 147 139 145 144 149 144 138 166 172 164 156 150 151 149 150 153 155 156 159 164 163 163 167 171 174 178 182 184 187 189 190 188 189 194 193 190 191 191 189 190 192 194 197 196 194 193 200 207 208 209 209 209 208 208 207 209 216 222 230 233 229 230 231 234 239 244 249 250 248 246 252 263 268 265 266 274 285 291 292 301 303 302 308 309
164 220 201 185 153 176 194 156 151 149 146 144 146 149 148 151 149 156 151 152 184 184 175 159 151 155 155 155 157 160 160 161 167 168 171 174 173 177 182 186 190 190 189 190 189 191 197 197 194 194 195 193 194 198 198 198 198 196 196 204 211 212 214 214 213 213 213 214 215 222 226 230 235 234 232 233 239 246 251 254 254 250 248 256 268 269 263 264 266 270 279 290 297 300 311 319 314
188 240 203 174 172 177 174 149 151 149 146 149 153 155 150 148 155 168 163 168 179 168 166 158 154 156 155 156 158 164 167 166 170 171 177 178 177 180 183 188 193 194 193 194 194 195 199 200 199 197 197 197 198 202 203 201 202 203 202 206 213 213 214 216 216 217 219 219 218 224 227 230 234 235 233 233 238 244 248 251 253 249 249 260 268 266 262 263 258 256 265 279 289 306 328 330 321
196 232 189 175 179 168 154 149 153 150 150 156 151 149 155 154 157 172 175 162 155 146 150 153 149 151 153 157 162 166 168 171 174 174 180 182 182 184 183 188 195 195 196 197 198 199 201 202 202 202 202 202 203 205 208 206 205 208 208 210 214 214 213 215 215 218 220 220 219 221 224 228 232 234 234 233 235 239 241 247 249 245 247 259 265 264 263 260 254 252 258 268 278 316 337 335 326
201 213 179 168 168 148 144 145 144 142 143 140 130 141 161 155 142 158 176 141 140 136 138 145 145 150 156 161 164 165 167 173 176 175 180 185 186 185 184 189 194 195 197 199 200 200 202 203 203 207 207 206 206 207 212 213 211 211 211 214 216 215 215 216 215 217 219 220 223 224 224 226 230 234 235 236 237 239 241 243 243 241 244 255 266 276 275 262 253 254 263 277 290 317 334 334 325
205 175 153 148 145 139 143 139 135 133 135 125 116 119 138 135 116 100 175 147 138 132 137 147 150 156 162 165 166 166 169 174 177 178 182 187 186 184 184 189 194 196 198 200 199 199 202 204 205 209 209 208 209 211 215 217 216 216 214 215 218 219 220 218 219 224 226 227 231 234 234 233 234 238 242 244 243 243 245 242 241 241 241 250 268 285 285 267 256 259 272 291 298 311 326 326 318
174 134 131 139 139 142 143 136 132 124 125 126 118 118 127 128 119 118 174 149 138 136 143 154 156 161 165 166 167 167 173 177 180 180 181 186 186 185 185 189 194 197 199 200 199 198 200 205 208 210 210 210 211 215 219 219 218 218 217 217 220 224 225 224 228 234 237 238 239 241 242 240 240 243 246 249 248 247 248 245 243 245 246 255 272 285 285 270 263 264 272 292 299 306 318 318 312
144 122 106 123 129 136 140 137 139 123 117 128 116 110 105 90 131 156 159 152 146 144 149 159 161 165 166 166 169 171 177 180 181 181 183 187 187 186 186 189 194 197 200 200 200 200 201 206 209 212 213 212 214 218 222 221 218 218 219 221 225 230 231 232 237 242 242 242 243 243 241 240 242 244 245 248 249 248 246 245 245 248 255 264 274 283 285 277 272 268 271 287 295 301 310 312 307
132 124 112 119 116 135 152 144 149 132 135 139 114 96 75 36 169 155 151 151 151 149 153 162 165 166 168 168 170 176 182 181 184 187 188 190 189 188 189 193 195 196 200 203 203 201 202 206 208 211 214 216 217 219 222 219 216 218 220 224 228 232 235 237 241 243 238 237 239 239 236 236 241 244 245 246 248 247 246 247 249 252 260 266 270 276 279 278 277 273 274 284 290 296 305 307 303
122 121 124 128 110 158 186 154 146 130 150 151 117 111 228 230 164 153 152 151 151 155 159 163 166 169 171 172 174 181 186 185 189 191 190 191 192 191 192 195 196 195 198 200 202 203 203 205 207 210 213 217 219 218 219 216 215 217 220 224 226 229 234 238 243 244 238 236 234 231 231 234 239 244 245 246 246 246 247 250 255 259 264 267 269 272 275 278 279 278 279 285 293 300 306 308 306
111 99 106 139 135 186 216 177 145 133 178 163 98 133 213 187 164 158 158 157 156 162 168 168 168 172 173 174 178 185 191 191 193 192 191 192 192 192 193 194 195 195 195 196 201 203 203 204 206 209 210 213 216 216 215 213 215 217 221 225 226 228 230 229 234 240 239 239 234 227 229 233 238 244 244 246 246 246 247 254 262 266 268 268 270 276 282 285 285 285 288 294 302 306 307 310 309
117 116 143 190 152 177 217 218 175 155 187 187 84 122 199 169 171 166 161 163 162 166 173 174 173 176 177 178 180 187 195 193 193 193 192 192 193 193 192 193 194 196 196 198 201 201 202 204 205 207 208 210 212 212 211 214 217 218 223 228 231 233 231 228 230 231 230 232 230 224 226 233 241 245 245 246 246 245 249 260 269 271 271 273 278 284 286 287 291 295 297 296 299 303 309 318 318
199 155 167 190 159 168 196 221 216 178 173 186 97 138 171 174 176 173 167 168 169 169 175 179 179 180 180 182 185 189 193 194 194 194 193 192 193 192 191 192 192 196 198 200 201 200 201 202 203 206 208 210 210 210 211 215 218 220 224 231 238 241 242 242 236 234 233 227 224 221 226 233 239 242 243 242 239 241 253 267 275 274 277 282 285 286 283 284 292 299 298 288 289 299 309 321 329
215 219 167 189 168 165 179 202 222 206 176 181 148 155 177 175 171 174 174 172 172 175 179 181 182 184 185 187 189 190 191 195 199 195 193 192 193 194 193 193 193 195 198 200 201 201 202 203 204 206 208 209 211 211 213 216 218 221 223 229 240 245 248 244 235 239 233 223 222 226 231 232 232 236 237 234 232 245 263 275 278 275 281 286 284 283 280 280 284 290 293 291 289 294 302 313 328
188 191 176 195 179 175 184 186 190 192 191 177 150 162 178 165 167 176 178 175 177 182 182 182 184 185 186 188 190 191 193 198 201 196 194 193 194 196 196 195 195 196 197 200 202 202 202 204 206 208 210 212 213 213 215 218 220 221 221 225 233 236 234 228 227 225 218 222 231 232 236 237 235 235 234 236 245 254 258 266 266 267 277 281 279 278 276 275 280 291 298 301 297 293 294 296 309
177 189 183 180 182 192 194 185 173 173 179 175 165 169 167 166 173 179 180 181 184 186 184 183 186 187 186 189 192 192 195 202 201 195 194 194 195 195 195 196 197 198 198 198 200 201 202 204 206 209 212 213 212 212 215 219 220 219 219 222 223 218 215 216 220 219 223 236 237 231 239 244 242 241 239 241 242 228 215 215 236 261 276 275 274 275 276 278 284 294 298 299 297 295 293 289 296
158 177 213 192 181 198 205 191 173 166 166 189 184 167 167 173 179 182 179 182 188 188 188 189 189 190 188 189 193 194 199 203 197 193 193 195 196 194 193 194 196 197 197 197 199 200 202 203 205 207 210 211 210 211 214 216 216 214 215 218 219 216 215 217 221 230 243 246 239 239 242 236 237 241 233 216 201 183 172 183 232 281 282 282 283 281 283 283 285 289 290 293 294 294 296 295 297
150 157 209 219 198 204 201 183 172 165 162 188 179 166 179 180 179 182 177 183 194 192 190 193 192 194 192 190 193 196 200 198 190 190 192 194 194 193 192 193 193 195 196 197 199 200 202 204 205 207 209 210 211 212 213 214 215 215 217 220 223 224 223 224 227 236 247 249 249 250 237 215 219 216 197 186 181 172 173 195 260 279 275 286 296 292 288 286 286 287 288 291 293 293 296 299 298
164 146 155 205 247 217 162 181 173 168 165 186 176 175 189 186 180 183 185 190 197 194 192 193 191 193 193 194 196 196 194 188 187 191 191 192 192 190 191 192 194 196 197 198 199 200 202 204 206 207 209 211 213 215 215 216 219 222 224 227 229 229 230 231 232 233 235 235 234 228 205 185 186 184 177 179 179 176 191 225 249 252 259 278 283 287 293 296 297 293 288 288 292 295 295 299 301
172 154 153 199 218 157 167 207 177 163 134 142 151 139 173 180 185 199 203 202 202 200 200 198 194 196 196 196 196 193 189 187 189 192 190 189 189 189 191 194 194 195 197 198 199 200 201 204 206 208 211 214 215 217 218 220 223 224 226 230 232 232 232 231 228 221 214 206 203 203 196 185 180 177 175 177 180 185 205 224 226 224 242 266 262 263 276 291 304 304 298 291 291 288 285 297 312
233 190 178 184 189 182 176 156 145 115 36 103 108 50 329 189 191 213 215 214 217 210 206 207 207 206 202 197 197 194 191 188 187 189 189 188 189 190 193 194 194 195 196 198 199 201 203 206 208 210 213 216 217 218 219 220 221 220 220 222 225 225 220 218 213 202 194 181 181 188 187 183 180 176 176 178 176 178 190 196 200 203 211 238 248 258 275 291 310 309 305 304 290 274 276 294 315
270 230 197 189 193 191 148 131 133 133 264 179 137 124 282 234 203 212 209 211 219 213 207 214 214 211 207 200 201 201 194 191 188 188 188 188 190 191 193 195 194 196 199 201 202 204 206 208 210 211 214 217 218 218 218 218 218 218 216 215 213 210 208 212 209 200 196 190 184 182 175 174 175 174 175 173 169 171 175 175 176 180 189 207 228 249 255 250 266 281 286 294 301 283 288 301 311
243 238 198 192 202 187 152 147 150 173 213 202 172 176 251 251 219 214 207 212 218 215 214 218 215 208 205 201 202 201 196 193 191 188 186 186 189 190 192 195 195 198 201 202 203 205 208 211 211 212 215 217 218 218 218 218 218 218 218 219 218 216 213 211 209 206 204 194 183 180 175 170 170 172 172 168 168 172 170 169 174 179 190 205 208 214 217 222 237 251 278 293 304 317 310 312 321
232 226 170 184 207 186 164 163 170 184 162 157 180 157 117 224 224 205 196 209 222 224 222 219 215 210 207 204 202 198 196 193 188 188 188 186 189 190 192 195 197 200 200 200 202 205 208 212 213 214 216 217 218 219 218 218 218 218 218 219 220 221 218 210 204 198 192 185 178 178 176 170 170 174 175 170 169 173 173 172 176 183 195 197 189 191 204 212 219 230 270 312 322 342 336 329 335
238 211 161 183 211 192 171 175 188 179 131 162 206 159 133 247 250 187 184 203 222 227 225 219 213 209 206 204 203 200 197 193 189 188 189 188 189 192 193 194 197 199 198 199 201 204 207 211 214 216 217 218 219 219 218 218 219 219 219 217 215 216 215 207 197 186 181 179 177 176 175 173 174 175 177 176 174 177 179 175 174 193 203 189 182 186 197 199 197 223 342 9 9 6 9 3 358
232 183 148 128 214 192 170 180 181 143 154 197 204 185 192 262 251 169 175 206 223 227 226 220 213 209 207 205 203 201 196 193 193 192 191 191 191 191 191 192 195 197 197 199 202 203 207 210 213 216 218 219 220 219 218 218 218 220 218 213 210 206 200 194 187 182 181 180 179 179 179 178 176 174 174 178 181 181 179 178 180 190 176 164 162 160 153 135 82 42 28 31 32 17 12 16 5
192 116 123 58 14 39 82 121 110 119 198 220 204 192 192 233 237 184 182 205 214 217 220 218 213 209 209 207 203 200 195 192 193 194 195 195 193 190 189 190 193 194 196 199 201 203 206 209 212 215 218 219 219 218 218 219 220 220 217 213 209 200 189 184 182 183 184 183 184 184 183 181 176 173 171 175 184 183 178 182 193 184 161 151 146 139 122 89 58 41 26 14 9 4 357 357 354
175 121 148 130 334 13 33 13 82 159 226 241 212 194 194 226 240 208 205 212 213 211 211 209 207 207 207 206 203 198 194 192 191 193 195 192 191 190 189 191 193 192 194 197 200 203 205 208 210 214 217 218 218 218 218 221 220 217 216 215 210 200 191 188 187 188 187 187 190 188 183 182 179 176 174 180 188 185 184 194 217 227 177 163 174 149 95 55 32 5 350 343 339 340 339 343 348
153 144 142 161 279 350 161 241 170 198 238 246 196 174 198 240 238 216 212 218 220 214 212 209 202 201 204 203 200 197 192 190 191 193 193 190 188 190 191 193 192 191 193 196 199 202 204 207 209 211 215 215 216 217 217 218 216 214 216 214 206 200 198 197 195 193 191 194 198 195 189 185 184 184 184 193 199 192 196 214 244 253 229 237 270 264 336 341 339 329 324 321 321 323 320 321 329
157 166 160 169 173 146 216 232 295 243 254 258 178 163 203 273 259 222 209 218 221 213 213 213 199 197 203 200 194 191 190 191 192 192 192 192 192 192 192 192 192 192 193 196 198 200 202 205 207 210 213 214 214 215 215 215 214 215 215 210 204 201 202 201 201 200 199 201 203 202 198 191 191 198 202 205 204 197 202 224 256 265 260 288 301 296 304 315 315 312 315 316 317 318 314 309 305
177 169 155 171 167 163 209 209 192 220 243 279 130 154 191 213 235 226 213 224 225 215 219 212 192 200 204 195 187 188 191 191 192 193 193 194 194 193 192 193 194 194 194 196 198 199 201 203 205 208 210 211 212 212 213 213 213 212 210 206 204 204 206 206 207 209 211 211 209 207 205 202 203 211 213 208 202 201 213 239 260 264 262 282 296 297 300 302 301 301 304 307 308 308 304 298 293
213 138 141 191 186 171 197 196 186 187 197 208 139 194 215 209 259 285 258 235 212 201 211 193 186 201 195 182 187 190 193 193 192 195 196 195 194 194 194 195 197 197 196 196 197 198 200 202 205 208 209 209 210 210 210 211 210 208 205 203 205 206 208 209 209 213 217 216 211 207 206 206 209 211 209 206 204 210 226 240 247 248 250 265 278 283 286 286 288 290 295 299 303 306 300 294 290
191 131 186 214 173 154 163 221 195 118 155 238 192 224 274 271 286 313 353 13 179 181 190 188 189 189 181 184 193 193 194 193 193 196 195 193 192 193 195 197 198 199 198 198 200 200 201 202 203 206 208 208 208 208 208 208 206 204 203 203 205 207 208 208 210 212 213 212 209 206 206 207 211 213 211 211 213 219 226 228 231 236 240 247 259 269 272 275 279 280 284 292 302 311 307 297 290
170 193 203 190 124 124 127 166 41 82 186 253 195 198 229 192 240 304 359 137 184 184 186 189 185 180 184 191 193 195 196 193 194 196 194 192 191 193 197 198 199 199 200 201 202 202 203 203 204 205 205 205 206 207 207 206 203 202 203 204 206 208 208 209 211 210 208 208 207 204 205 208 212 215 215 216 216 215 215 217 223 232 234 238 252 262 265 269 272 272 277 285 291 298 299 295 291
205 207 177 151 159 210 147 165 179 154 200 258 261 227 219 195 216 251 216 195 193 189 184 182 180 181 190 193 193 197 196 193 194 194 194 193 193 196 197 200 202 202 203 204 204 204 204 205 206 206 205 205 205 205 203 202 203 204 205 206 208 208 207 207 209 209 208 209 207 204 205 208 209 213 215 213 210 208 209 216 225 231 232 240 251 257 261 267 269 270 275 280 283 284 285 287 289
216 154 154 154 166 176 177 166 166 177 194 219 271 296 246 225 216 208 211 195 172 171 179 185 187 188 190 190 192 195 192 193 194 193 196 195 195 198 199 201 202 202 205 206 205 205 205 206 207 207 207 207 206 203 200 199 202 204 204 206 208 207 206 206 208 209 212 213 211 210 210 207 204 209 211 209 210 213 215 220 228 232 237 249 256 256 257 260 264 269 273 276 276 276 279 284 288
185 188 193 188 120 144 172 169 143 150 160 172 206 258 259 250 210 196 208 185 165 174 182 186 188 189 193 192 190 192 192 194 194 194 197 197 196 199 201 204 204 204 205 206 205 206 207 207 207 206 206 206 205 203 200 200 200 200 202 204 206 206 205 206 207 211 215 217 217 216 215 208 202 205 208 212 217 220 222 226 230 238 249 257 258 256 257 263 269 273 274 275 277 280 284 287 287
183 197 199 182 160 133 155 225 238 123 151 171 171 218 261 257 201 197 203 176 176 184 181 181 185 187 193 196 193 192 192 194 196 198 198 195 195 199 202 204 205 205 206 206 207 208 208 208 207 207 206 205 205 203 201 201 199 198 201 203 203 204 204 205 207 210 214 218 219 219 218 213 207 208 213 219 223 224 228 234 238 246 252 252 253 257 263 270 273 276 278 282 286 288 291 291 287